Huntington, WV

3:49 AM EST on December 11, 2019 (GMT -0500)
Tri-State / Ferguson

Weather History for KHTS - October, 2019

Change the Weather History Date:

Monday, October 28, 2019

  Actual Average Record
Temperature  
Mean Temperature 58 °F 53 °F  
Max Temperature 74 °F 64 °F 85 °F (1919)
Min Temperature 42 °F 42 °F 26 °F (1976)
Degree Days  
Heating Degree Days 7 12  
Month to date heating degree days 165 242  
Since 1 July heating degree days 165 300  
Cooling Degree Days 0 0  
Month to date cooling degree days 66 16  
Year to date cooling degree days 1511 1127  
Growing Degree Days 8 (Base 50)    
Moisture  
Dew Point 48 °F    
Average Humidity 73    
Maximum Humidity 100    
Minimum Humidity 46    
Precipitation  
Precipitation 0.00 in 0.10 in 1.78 in (1984)
Month to date precipitation 4.69 2.51  
Year to date precipitation 39.16 35.54  
Snow  
Snow 0.00 in 0.10 in T in (1995)
Month to date snowfall 0.0 0.1  
Since 1 September snowfall 0.0 0.1  
Snow Depth 0.00 in    
Sea Level Pressure  
Sea Level Pressure 30.09 in    
Wind  
Wind Speed 2 mph (NNE)    
Max Wind Speed 7 mph    
Max Gust Speed 9 mph    
Visibility 5 miles    
Events Fog    
T = Trace of Precipitation, MM = Missing Value Source: NWS Daily Summary

Daily Weather History Graph

Daily Weather History Graph

Search for Another Location

Airport or City:

Astronomy

Oct. 28, 2019 Rise Set
Actual Time 7:52 AM EDT 6:35 PM EDT
Civil Twilight 7:24 AM EDT 7:02 PM EDT
Nautical Twilight 6:53 AM EDT 7:33 PM EDT
Astronomical Twilight 6:23 AM EDT 8:04 PM EDT
Moon 8:12 AM EDT (10/28) 7:20 PM EDT (10/28)
Length of Visible Light 11h 37m
Length of Day
10h 43m
New Moon, 0% of the Moon is Illuminated
Oct 28
New Moon
Nov 4
First Quarter
Nov 12
Full
Nov 19
Last Quarter
Nov 26
New

Hourly Weather History & Observations

Time (EDT) Temp. Windchill Dew Point Humidity Pressure Visibility Wind Dir Wind Speed Gust Speed Precip Events Conditions
12:29 AM 48.0 °F - 46.9 °F 96% 30.07 in 2.5 mi Calm Calm - N/A   Clear
12:37 AM 48.9 °F - 46.9 °F 93% 30.08 in 8.0 mi Calm Calm - N/A   Clear
12:51 AM 48.9 °F - 46.9 °F 93% 30.07 in 10.0 mi Calm Calm - N/A   Clear
1:51 AM 48.0 °F - 46.0 °F 93% 30.09 in 8.0 mi Calm Calm - N/A   Clear
2:30 AM 46.0 °F 44.8 °F 45.0 °F 96% 30.10 in 2.0 mi NE 3.5 mph - N/A   Partly Cloudy
2:34 AM 46.0 °F - 45.0 °F 96% 30.10 in 1.0 mi Calm Calm - N/A   Mist
2:39 AM 46.0 °F - 45.0 °F 96% 30.10 in 0.8 mi Calm Calm - N/A   Mist
2:51 AM 46.9 °F - 45.0 °F 93% 30.10 in 0.5 mi Calm Calm - N/A Fog Fog
2:58 AM 46.9 °F - 45.0 °F 93% 30.10 in 0.2 mi Calm Calm - N/A Fog Fog
3:18 AM 46.0 °F - 44.1 °F 93% 30.09 in 0.5 mi Calm Calm - N/A Fog Fog
3:31 AM 46.4 °F - 44.6 °F 93% 30.10 in 0.2 mi Calm Calm - N/A Fog Fog
3:51 AM 45.0 °F - 44.1 °F 97% 30.10 in 0.5 mi Calm Calm - N/A Fog Fog
4:10 AM 45.0 °F - 43.0 °F 93% 30.10 in 0.5 mi Calm Calm - N/A Fog Fog
4:21 AM 45.0 °F 43.5 °F 44.1 °F 97% 30.10 in 0.2 mi NNE 3.5 mph - N/A Fog Fog
4:51 AM 45.0 °F - 44.1 °F 97% 30.09 in 0.2 mi Calm Calm - N/A Fog Fog
5:51 AM 44.1 °F - 43.0 °F 96% 30.11 in 0.2 mi Calm Calm - N/A Fog Fog
6:51 AM 42.1 °F - 41.0 °F 96% 30.12 in 0.2 mi Calm Calm - N/A Fog Fog
7:51 AM 45.0 °F - 43.0 °F 93% 30.12 in 0.2 mi Calm Calm - N/A Fog Fog
8:51 AM 44.1 °F - 44.1 °F 100% 30.13 in 0.2 mi Calm Calm - N/A Fog Fog
8:59 AM 45.0 °F - 44.1 °F 97% 30.13 in 0.8 mi Calm Calm - N/A   Mist
9:04 AM 45.0 °F - 44.1 °F 97% 30.12 in 2.0 mi Calm Calm - N/A   Mostly Cloudy
9:11 AM 45.0 °F - 45.0 °F 100% 30.13 in 0.5 mi Calm Calm - N/A Fog Fog
9:23 AM 46.0 °F - 45.0 °F 96% 30.13 in 0.2 mi Calm Calm - N/A Fog Fog
9:51 AM 48.9 °F - 48.0 °F 97% 30.14 in 0.2 mi Calm Calm - N/A Fog Fog
10:19 AM 51.1 °F - 50.0 °F 96% 30.13 in 0.5 mi Calm Calm - N/A Fog Fog
10:28 AM 53.1 °F - 51.1 °F 93% 30.14 in 5.0 mi Calm Calm - N/A   Clear
10:51 AM 55.0 °F - 51.1 °F 86% 30.14 in 10.0 mi North 3.5 mph - N/A   Clear
11:51 AM 59.0 °F - 52.0 °F 78% 30.14 in 10.0 mi North 3.5 mph - N/A   Clear
12:51 PM 66.0 °F - 54.0 °F 65% 30.10 in 10.0 mi Calm Calm - N/A   Clear
1:51 PM 68.0 °F - 52.0 °F 56% 30.07 in 10.0 mi South 4.6 mph - N/A   Clear
2:51 PM 71.1 °F - 51.1 °F 49% 30.04 in 10.0 mi Calm Calm - N/A   Clear
3:51 PM 73.0 °F - 52.0 °F 48% 30.02 in 10.0 mi Variable 3.5 mph - N/A   Clear
4:51 PM 73.0 °F - 52.0 °F 48% 30.03 in 10.0 mi NNE 4.6 mph - N/A   Clear
5:51 PM 70.0 °F - 52.0 °F 53% 30.03 in 10.0 mi NE 4.6 mph - N/A   Clear
6:51 PM 66.9 °F - 51.1 °F 57% 30.04 in 10.0 mi East 3.5 mph - N/A   Clear
7:51 PM 63.0 °F - 51.1 °F 65% 30.04 in 10.0 mi ENE 3.5 mph - N/A   Clear
8:51 PM 62.1 °F - 52.0 °F 70% 30.06 in 10.0 mi NNW 3.5 mph - N/A   Clear
9:51 PM 57.0 °F - 52.0 °F 83% 30.06 in 10.0 mi Calm Calm - N/A   Clear
10:51 PM 55.0 °F - 52.0 °F 89% 30.07 in 10.0 mi Calm Calm - N/A   Clear
11:51 PM 53.1 °F - 51.1 °F 93% 30.07 in 10.0 mi Calm Calm - N/A   Clear